Weather reports worldwide

Advertisment
Lorient Lan Bihoue, France (7205): temperature & dewpoint: 14.10.2020 16:00:00 - 20.10.2020 16:00:00 (CEST)Lorient Lan Bihoue, France (7205): temperature 5cm: 14.10.2020 16:00:00 - 20.10.2020 16:00:00 (CEST)Lorient Lan Bihoue, France (7205): temperature -20cm: 14.10.2020 16:00:00 - 20.10.2020 16:00:00 (CEST)Lorient Lan Bihoue, France (7205): wind speed & gusts: 14.10.2020 16:00:00 - 20.10.2020 16:00:00 (CEST)Lorient Lan Bihoue, France (7205): wind direction: 14.10.2020 16:00:00 - 20.10.2020 16:00:00 (CEST)Lorient Lan Bihoue, France (7205): reduced air pressure: 14.10.2020 16:00:00 - 20.10.2020 16:00:00 (CEST)Lorient Lan Bihoue, France (7205): visibility: 14.10.2020 16:00:00 - 20.10.2020 16:00:00 (CEST)Lorient Lan Bihoue, France (7205): sunshine duration: 14.10.2020 16:00:00 - 20.10.2020 16:00:00 (CEST)Lorient Lan Bihoue, France (7205): precipitation: 14.10.2020 16:00:00 - 20.10.2020 16:00:00 (CEST)
Date & Time tt [°C] td [°C] tt 5cm [°C] tt -20cm [°C] ff [km/h] ff [kn] fx [km/h] fx [kn] dd ppp [hPa] vv [km] sd [min] rr [mm]
20.10.2020 16:00:00 17,6 13,3 - - 21 11 34 18 S 1002,0 19 - 0,0
20.10.2020 15:00:00 18,1 12,5 18,3 13,5 21 11 36 20 S 1002,5 52 6 0,0
20.10.2020 14:00:00 17,7 13,2 17,3 13,4 22 12 34 19 S 1003,2 30 3 0,0
20.10.2020 13:00:00 17,0 13,1 17,3 13,4 23 13 36 19 S 1003,7 41 3 0,0
20.10.2020 12:00:00 16,9 13,4 17,0 13,4 23 13 42 23 S 1003,9 20 27 0,0
20.10.2020 11:00:00 15,9 13,6 15,3 13,3 21 11 35 19 S 1003,6 20 0 0,0
20.10.2020 10:00:00 15,3 13,7 14,6 13,3 18 10 33 18 S 1003,9 18 0 0,0
20.10.2020 09:00:00 14,9 13,9 14,4 13,2 17 9 30 16 S 1003,3 14 0 0,0
20.10.2020 08:00:00 14,8 13,8 14,3 13,2 17 9 29 16 S 1003,1 13 0 0,0
20.10.2020 07:00:00 15,1 14,0 14,6 13,2 20 11 31 17 SSW 1003,3 14 0 0,0
20.10.2020 06:00:00 15,3 14,0 14,5 13,1 19 11 34 19 SSW 1003,0 16 0 0,0
20.10.2020 05:00:00 15,7 13,7 15,4 13,1 23 12 39 21 SSW 1003,0 20 0 0,0
20.10.2020 04:00:00 15,7 13,7 14,7 13,0 18 10 35 19 S 1003,3 19 0 0,0
20.10.2020 03:00:00 15,1 13,6 14,5 13,0 22 12 36 19 S 1003,3 12 0 0,0
20.10.2020 02:00:00 15,0 13,5 14,0 12,9 23 12 32 17 SSE 1003,7 12 0 0,0
20.10.2020 01:00:00 14,5 13,4 13,9 12,9 16 9 22 12 SE 1003,7 10 0 0,2
20.10.2020 00:00:00 14,5 13,4 13,9 12,9 11 6 29 15 SSE 1004,6 10 0 0,8
19.10.2020 23:00:00 14,6 13,1 13,4 12,9 19 10 36 19 SSE 1005,2 6 0 2,2
19.10.2020 22:00:00 15,1 11,7 13,5 12,8 24 13 44 24 SE 1005,4 17 0 0,0
19.10.2020 21:00:00 15,3 10,3 14,9 12,8 27 14 50 27 SE 1005,2 37 0 0,0
19.10.2020 20:00:00 15,4 9,3 14,4 12,7 25 13 46 25 SE 1006,0 42 0 0,0
19.10.2020 19:00:00 15,3 8,5 14,6 12,7 31 17 53 29 SE 1005,6 44 15 0,0
19.10.2020 18:00:00 15,6 7,6 15,4 12,6 29 16 52 28 SE 1006,9 50 13 0,0
19.10.2020 17:00:00 15,6 6,8 15,9 12,5 30 16 50 27 SE 1007,6 49 13 0,0
19.10.2020 16:00:00 16,7 6,2 16,8 12,4 27 14 44 24 SE 1008,8 46 12 0,0
19.10.2020 15:00:00 16,9 7,8 17,6 12,4 29 16 47 25 SE 1009,9 32 48 0,0
19.10.2020 14:00:00 15,4 7,9 17,5 12,4 23 12 46 25 SE 1011,6 29 46 0,0
19.10.2020 13:00:00 15,4 8,6 13,9 12,4 26 14 41 22 ESE 1012,8 20 20 0,0
19.10.2020 12:00:00 12,8 7,5 12,7 12,4 24 13 37 20 E 1013,6 34 40 0,0
19.10.2020 11:00:00 11,4 7,5 10,6 12,5 19 11 34 18 ESE 1014,6 11 60 0,0
19.10.2020 10:00:00 9,0 6,3 - - 15 8 24 13 E 1015,6 17 - 0,0
19.10.2020 09:00:00 7,3 5,3 6,2 12,6 17 9 27 14 E 1015,8 15 0 0,0
19.10.2020 08:00:00 7,1 5,6 5,2 12,6 18 10 24 13 E 1016,1 14 0 0,0
19.10.2020 07:00:00 7,2 5,2 5,7 12,6 13 7 21 11 E 1017,1 15 0 0,0
19.10.2020 06:00:00 8,4 6,2 7,0 12,6 13 7 21 11 E 1017,5 17 0 0,0
19.10.2020 05:00:00 7,7 6,0 4,8 12,7 14 7 19 10 ENE 1018,4 17 0 0,0
19.10.2020 04:00:00 8,0 5,8 5,6 12,7 11 6 18 10 E 1019,4 19 0 0,0
19.10.2020 03:00:00 8,6 6,0 6,8 12,8 13 7 18 10 E 1020,2 22 0 0,0
19.10.2020 02:00:00 7,9 5,9 5,1 12,8 13 7 18 10 ENE 1020,5 18 0 0,0
19.10.2020 01:00:00 7,5 5,5 4,9 12,9 11 6 23 13 E 1021,2 16 0 0,0
19.10.2020 00:00:00 8,3 5,8 5,0 12,9 9 5 12 6 ENE 1022,0 19 0 0,0
18.10.2020 23:00:00 8,0 6,0 5,4 12,9 9 5 11 6 ENE 1021,6 14 0 0,0
18.10.2020 22:00:00 8,1 6,2 3,2 12,9 9 5 11 6 ENE 1022,0 18 0 0,0
18.10.2020 21:00:00 8,3 6,3 2,7 12,9 6 3 7 4 ENE 1022,4 23 0 0,0
18.10.2020 20:00:00 9,2 6,5 4,4 12,9 5 3 10 6 E 1022,4 29 0 0,0
18.10.2020 19:00:00 11,4 5,9 9,7 12,8 9 5 16 8 SSE 1022,5 42 26 0,0
18.10.2020 18:00:00 12,6 5,3 12,9 12,8 11 6 19 11 SSE 1022,5 54 6 0,0
18.10.2020 17:00:00 13,1 5,3 14,3 12,7 14 8 21 12 SSE 1023,0 47 20 0,0
18.10.2020 16:00:00 14,1 5,2 17,5 12,6 14 8 28 15 SE 1023,0 57 60 0,0
18.10.2020 15:00:00 14,2 5,0 17,5 12,6 16 8 26 14 SE 1023,6 57 60 0,0
18.10.2020 14:00:00 13,7 6,1 16,0 12,6 16 9 27 15 SE 1023,9 20 57 0,0
18.10.2020 13:00:00 13,0 5,9 14,4 12,6 13 7 23 12 ESE 1024,5 20 29 0,0
18.10.2020 12:00:00 11,8 5,2 11,7 12,6 14 8 22 12 E 1024,7 17 60 0,0
18.10.2020 11:00:00 10,1 5,1 11,0 12,7 13 7 18 10 E 1024,4 21 32 0,0
18.10.2020 10:00:00 8,6 5,5 4,0 12,8 10 5 13 7 ENE 1024,3 16 60 0,0
18.10.2020 09:00:00 5,3 3,9 - - 11 6 15 8 E 1023,6 11 - 0,0
18.10.2020 08:00:00 5,3 3,6 3,1 12,8 13 7 15 8 E 1023,6 13 0 0,0
18.10.2020 07:00:00 6,8 4,3 3,1 12,9 11 6 14 8 E 1023,3 18 0 0,0
18.10.2020 06:00:00 6,8 4,1 3,2 12,9 9 5 16 9 E 1022,8 20 0 0,0
18.10.2020 05:00:00 7,4 4,4 4,9 12,9 12 6 15 8 E 1022,6 19 0 0,0
18.10.2020 04:00:00 9,2 5,6 8,0 12,9 9 5 15 8 E 1022,9 23 0 0,0
18.10.2020 03:00:00 9,7 6,2 8,9 12,9 8 4 14 8 E 1022,8 21 0 0,0
18.10.2020 02:00:00 10,5 6,3 9,7 12,9 12 7 18 10 E 1022,7 24 0 0,0
18.10.2020 01:00:00 10,3 7,4 9,5 12,9 7 4 13 7 E 1022,8 17 0 0,0
18.10.2020 00:00:00 10,3 7,9 9,1 13,0 8 4 11 6 ENE 1022,5 14 0 0,0
17.10.2020 23:00:00 9,9 7,7 8,1 12,9 8 5 10 5 ENE 1022,3 16 0 0,0
17.10.2020 22:00:00 10,3 7,5 8,0 12,9 6 4 10 6 NE 1021,9 14 0 0,0
17.10.2020 21:00:00 10,1 7,5 7,9 12,9 3 2 5 3 ENE 1021,9 23 0 0,0
17.10.2020 20:00:00 10,5 7,0 8,4 12,8 4 2 11 6 E 1021,1 33 0 0,0
17.10.2020 19:00:00 11,8 5,9 10,6 12,8 10 5 19 11 S 1020,4 46 44 0,0
17.10.2020 18:00:00 13,3 5,9 15,5 12,7 14 7 26 14 SSE 1020,1 48 60 0,0
17.10.2020 17:00:00 13,6 6,0 17,2 12,7 16 9 29 15 SE 1020,0 34 60 0,0
17.10.2020 16:00:00 14,0 5,9 18,4 12,5 20 11 36 19 SSE 1020,0 35 60 0,0
17.10.2020 15:00:00 14,2 5,5 17,2 12,5 18 10 31 17 SE 1020,3 29 57 0,0
17.10.2020 14:00:00 14,1 6,2 14,1 12,5 14 8 41 22 ESE 1020,4 18 39 0,0
17.10.2020 13:00:00 12,5 6,1 12,8 12,5 18 10 27 15 E 1020,4 32 4 0,0
17.10.2020 12:00:00 11,1 6,0 10,7 12,5 14 7 20 11 E 1020,8 20 0 0,0
17.10.2020 11:00:00 9,4 7,0 8,3 12,5 9 5 15 8 ENE 1020,4 14 0 0,0
17.10.2020 10:00:00 8,2 6,7 7,0 12,6 11 6 17 9 ENE 1020,3 10 0 0,0
17.10.2020 09:00:00 7,3 6,2 6,0 12,7 8 4 15 8 ENE 1019,7 8 0 0,0
17.10.2020 08:00:00 6,3 5,4 2,7 12,7 10 6 13 7 ENE 1019,5 8 0 0,0
17.10.2020 07:00:00 5,4 4,2 2,5 12,7 10 5 13 7 ENE 1019,8 10 0 0,0
17.10.2020 06:00:00 5,8 4,1 3,1 12,8 10 5 11 6 ENE 1019,9 14 0 0,0
17.10.2020 05:00:00 6,4 4,6 3,9 12,8 9 5 10 5 ENE 1019,9 18 0 0,0
17.10.2020 04:00:00 6,7 4,9 5,5 12,9 9 5 10 5 NE 1020,6 16 0 0,0
17.10.2020 03:00:00 6,6 4,8 4,4 13,0 7 4 11 6 ENE 1020,9 16 0 0,0
17.10.2020 02:00:00 5,6 4,1 -0,8 13,1 8 5 12 6 NE 1021,3 15 0 0,0
17.10.2020 01:00:00 5,8 4,3 -0,4 13,1 7 4 9 5 NE 1021,6 17 0 0,0
17.10.2020 00:00:00 6,1 4,6 -0,2 13,2 8 4 9 5 NE 1021,8 15 0 0,0
16.10.2020 23:00:00 6,9 4,7 0,4 13,2 7 4 11 6 ENE 1021,9 17 0 0,0
16.10.2020 22:00:00 7,7 5,5 2,1 13,3 8 4 10 6 ENE 1021,8 23 0 0,0
16.10.2020 21:00:00 8,7 5,6 3,1 13,3 9 5 10 6 NE 1022,2 34 0 0,0
16.10.2020 20:00:00 10,5 5,3 6,0 13,1 9 5 16 9 NE 1022,1 50 0 0,0
16.10.2020 19:00:00 12,5 6,1 12,0 13,1 9 5 16 9 ENE 1021,8 60 41 0,0
16.10.2020 18:00:00 13,0 7,0 13,3 13,1 3 2 10 5 NNW 1021,7 58 0 0,0
16.10.2020 17:00:00 12,9 6,9 13,5 13,0 5 3 12 7 WNW 1022,0 60 0 0,0
16.10.2020 16:00:00 14,5 6,6 14,7 12,9 9 5 21 11 WSW 1022,0 60 19 0,0
16.10.2020 15:00:00 13,7 4,8 15,0 12,9 10 6 24 13 NNE 1022,3 58 3 0,0
16.10.2020 14:00:00 14,9 5,4 17,6 12,9 9 5 23 12 ENE 1022,8 20 52 0,0
16.10.2020 13:00:00 14,0 5,6 17,3 12,8 8 4 19 10 E 1023,5 26 60 0,0
16.10.2020 12:00:00 12,7 6,1 14,8 12,9 9 5 21 11 E 1023,6 18 60 0,0
16.10.2020 11:00:00 11,1 8,8 8,5 12,9 10 6 16 9 ENE 1023,8 38 25 0,0
16.10.2020 10:00:00 7,5 6,9 5,1 12,9 6 3 9 5 ENE 1023,8 24 8 0,0
16.10.2020 09:00:00 6,2 5,6 1,6 13,0 5 3 7 4 NE 1023,5 20 3 0,0
16.10.2020 08:00:00 6,4 5,5 2,2 13,1 5 3 7 4 NE 1023,4 9 0 0,0
16.10.2020 07:00:00 6,8 5,7 4,2 13,1 5 3 15 8 ENE 1023,6 36 0 0,0
16.10.2020 06:00:00 7,2 6,1 5,5 13,1 13 7 18 10 NNE 1023,3 43 0 0,0
16.10.2020 05:00:00 8,2 7,0 6,6 13,2 11 6 16 9 N 1023,4 43 0 0,0
16.10.2020 04:00:00 8,6 7,1 7,6 13,2 8 4 18 10 N 1023,8 40 0 0,0
16.10.2020 03:00:00 8,1 7,2 2,6 13,3 7 4 13 7 N 1024,2 34 0 0,0
16.10.2020 02:00:00 7,2 6,3 2,8 13,3 5 3 14 8 NNW 1024,3 34 0 0,0
16.10.2020 01:00:00 7,6 6,4 4,5 13,4 9 5 14 7 N 1024,0 35 0 0,0
16.10.2020 00:00:00 8,0 6,6 5,7 13,4 7 4 11 6 N 1024,2 38 0 0,0
15.10.2020 23:00:00 9,3 7,7 7,9 13,4 7 4 21 11 N 1024,2 44 0 0,0
15.10.2020 22:00:00 9,3 7,2 6,4 13,3 9 5 15 8 N 1024,0 46 0 0,0
15.10.2020 21:00:00 10,0 7,2 8,6 13,4 8 4 11 6 N 1023,9 58 0 0,0
15.10.2020 20:00:00 11,5 7,0 10,8 13,2 9 5 27 14 NNE 1023,4 59 0 0,0
15.10.2020 19:00:00 12,6 6,4 12,0 13,2 17 9 26 14 NE 1022,8 60 0 0,0
15.10.2020 18:00:00 13,2 6,8 13,1 13,2 14 8 30 16 NNE 1022,4 60 1 0,0
15.10.2020 17:00:00 13,9 5,5 14,1 13,1 22 12 33 18 NE 1022,4 51 34 0,0
15.10.2020 16:00:00 15,0 5,2 15,4 13,0 20 11 38 20 NNE 1022,2 46 52 0,0
15.10.2020 15:00:00 15,1 5,9 15,9 13,0 23 12 37 20 NNE 1022,1 20 56 0,0
15.10.2020 14:00:00 14,8 6,4 14,8 12,9 19 10 35 19 NNE 1022,5 40 52 0,0
15.10.2020 13:00:00 14,0 7,5 14,7 13,0 21 11 35 19 N 1022,8 48 47 0,0
15.10.2020 12:00:00 12,5 8,2 12,2 13,0 21 11 35 19 NNE 1022,9 38 14 0,0
15.10.2020 11:00:00 10,6 7,8 10,0 13,0 12 7 27 15 N 1022,8 46 19 0,0
15.10.2020 10:00:00 9,1 7,4 7,9 13,0 13 7 27 15 N 1022,4 36 0 0,0
15.10.2020 09:00:00 8,5 6,3 8,0 13,1 14 8 30 16 N 1021,9 54 4 0,0
15.10.2020 08:00:00 8,7 6,3 7,5 13,1 17 9 26 14 N 1021,7 58 0 0,0
15.10.2020 07:00:00 8,6 6,9 7,7 13,1 16 9 23 12 NNE 1021,4 50 0 0,0
15.10.2020 06:00:00 8,1 6,9 5,8 13,2 14 7 23 12 N 1021,2 37 0 0,0
15.10.2020 05:00:00 7,7 6,2 7,1 13,2 12 6 22 12 N 1021,1 36 0 0,0
15.10.2020 04:00:00 8,1 6,6 6,8 13,2 13 7 22 12 N 1021,3 31 0 0,0
15.10.2020 03:00:00 7,8 6,3 5,8 13,3 10 6 20 11 N 1021,4 26 0 0,0
15.10.2020 02:00:00 7,1 5,6 4,6 13,4 11 6 20 11 N 1021,2 22 0 0,0
15.10.2020 01:00:00 7,4 6,0 6,0 13,4 11 6 23 13 NNE 1021,1 22 0 0,0
15.10.2020 00:00:00 7,7 5,8 6,4 13,5 14 8 24 13 N 1020,7 24 0 0,0
14.10.2020 23:00:00 7,7 5,7 5,9 13,5 13 7 23 12 N 1020,4 27 0 0,0
14.10.2020 22:00:00 7,7 5,8 5,0 13,5 11 6 16 9 N 1020,0 32 0 -
14.10.2020 21:00:00 8,8 5,7 6,3 13,4 10 5 20 11 NE 1019,8 39 0 0,0
14.10.2020 20:00:00 10,0 6,2 8,3 13,4 14 7 36 20 NNE 1019,2 43 4 0,0
14.10.2020 19:00:00 12,2 6,2 11,7 13,4 22 12 34 18 NE 1018,3 57 40 0,0
14.10.2020 18:00:00 12,7 6,1 12,6 13,3 17 9 39 21 NNE 1017,6 58 20 0,0
14.10.2020 17:00:00 14,3 5,6 12,9 13,3 15 8 32 17 NE 1017,0 60 33 0,0
14.10.2020 16:00:00 15,1 5,3 12,7 13,2 19 11 33 18 ENE 1016,7 18 35 0,0

tt = temperature
td = dewpoint
tt 5cm = temperature 5cm
tt -20cm = temperature -20cm
ff = wind speed
fx = gusts
dd = wind direction
ppp = reduced air pressure
vv = visibility
sd = sunshine duration
rr = precipitation

Next stations